Ankeny, IA

12:36 AM CDT on April 27, 2017 (GMT -0500)
Ankeny Regional

Weather History for KIKV - April, 2014

Change the Weather History Date:

Saturday, April 19, 2014

  Actual Average (KDSM) Record (KDSM)
Temperature  
Mean Temperature 60 °F -  
Max Temperature 77 °F 65 °F 86 °F (1987)
Min Temperature 42 °F 43 °F 25 °F (1928)
Degree Days  
Heating Degree Days 6    
Growing Degree Days 10 (Base 50)    
Moisture  
Dew Point 39 °F    
Average Humidity 45    
Maximum Humidity 66    
Minimum Humidity 28    
Precipitation  
Precipitation 0.00 in - - ()
Sea Level Pressure  
Sea Level Pressure 30.11 in    
Wind  
Wind Speed 10 mph (SSE)    
Max Wind Speed 22 mph    
Max Gust Speed 30 mph    
Visibility 10 miles    
Events      
Averages and records for this station are not official NWS values.
T = Trace of Precipitation, MM = Missing Value Source: NWS Daily Summary

Daily Weather History Graph

Daily Weather History Graph

Search for Another Location

Airport or City:

Trip Planner

Search our weather history database for the weather conditions in past years. The results will help you decide how hot, cold, wet, or windy it might be!

Date:

Astronomy

Apr. 19, 2014 Rise Set
Actual Time 6:28 AM CDT 7:59 PM CDT
Civil Twilight 5:58 AM CDT 8:28 PM CDT
Nautical Twilight 5:23 AM CDT 9:03 PM CDT
Astronomical Twilight 4:46 AM CDT 9:41 PM CDT
Moon No Moon Rise 9:45 AM CDT (4/19)
Length of Visible Light 14h 29m
Length of Day
13h 31m
Waning Gibbous, 78% of the Moon is Illuminated
Apr 19
Waning Gibbous
Apr 22
Last Quarter
Apr 29
New
May 6
First Quarter
May 14
Full

Hourly Weather History & Observations

Time (CDT) Temp. Windchill Dew Point Humidity Pressure Visibility Wind Dir Wind Speed Gust Speed Precip Events Conditions
12:15 AM 51.8 °F - 33.8 °F 50% 30.18 in 10.0 mi SE 9.2 mph - N/A   Clear
12:35 AM 51.8 °F - 33.8 °F 50% 30.18 in 10.0 mi SE 8.1 mph - N/A   Clear
12:55 AM 50.0 °F - 33.8 °F 54% 30.18 in 10.0 mi SE 8.1 mph - N/A   Clear
1:15 AM 51.8 °F - 33.8 °F 50% 30.17 in 10.0 mi SE 9.2 mph - N/A   Clear
1:35 AM 51.8 °F - 32.0 °F 47% 30.17 in 10.0 mi SE 10.4 mph - N/A   Clear
1:55 AM 50.0 °F - 32.0 °F 50% 30.17 in 10.0 mi SE 6.9 mph - N/A   Clear
2:15 AM 50.0 °F - 32.0 °F 50% 30.17 in 10.0 mi SSE 10.4 mph - N/A   Clear
2:35 AM 50.0 °F - 32.0 °F 50% 30.17 in 10.0 mi SE 8.1 mph - N/A   Clear
2:55 AM 50.0 °F - 32.0 °F 50% 30.17 in 10.0 mi SE 8.1 mph - N/A   Clear
3:15 AM 48.2 °F - 32.0 °F 54% 30.16 in 10.0 mi SE 6.9 mph - N/A   Clear
3:35 AM 48.2 °F - 32.0 °F 54% 30.16 in 10.0 mi SE 5.8 mph - N/A   Clear
3:55 AM 46.4 °F 42.9 °F 32.0 °F 57% 30.15 in 10.0 mi SE 6.9 mph - N/A   Clear
4:15 AM 46.4 °F 42.4 °F 32.0 °F 57% 30.15 in 10.0 mi SE 8.1 mph - N/A   Clear
4:35 AM 48.2 °F - 32.0 °F 54% 30.15 in 10.0 mi SE 8.1 mph - N/A   Clear
4:55 AM 46.4 °F 42.4 °F 32.0 °F 57% 30.16 in 10.0 mi SE 8.1 mph - N/A   Clear
5:15 AM 46.4 °F 42.4 °F 32.0 °F 57% 30.16 in 10.0 mi SE 8.1 mph - N/A   Clear
5:35 AM 46.4 °F 42.9 °F 32.0 °F 57% 30.16 in 10.0 mi SE 6.9 mph - N/A   Clear
5:55 AM 46.4 °F 42.4 °F 32.0 °F 57% 30.16 in 10.0 mi SE 8.1 mph - N/A   Clear
6:15 AM 44.6 °F 40.2 °F 32.0 °F 61% 30.16 in 10.0 mi ESE 8.1 mph - N/A   Clear
6:35 AM 42.8 °F 41.1 °F 32.0 °F 66% 30.16 in 10.0 mi Variable 3.5 mph - N/A   Clear
6:55 AM 44.6 °F 40.2 °F 32.0 °F 61% 30.17 in 10.0 mi SE 8.1 mph - N/A   Clear
7:15 AM 46.4 °F 41.9 °F 32.0 °F 57% 30.17 in 10.0 mi SE 9.2 mph - N/A   Clear
7:35 AM 46.4 °F 41.5 °F 32.0 °F 57% 30.18 in - SE 10.4 mph - N/A   Clear
7:55 AM 48.2 °F - 33.8 °F 58% 30.18 in 10.0 mi SE 11.5 mph - N/A   Clear
8:15 AM 48.2 °F - 33.8 °F 58% 30.18 in 10.0 mi SE 9.2 mph 15.0 mph N/A   Clear
8:35 AM 50.0 °F - 35.6 °F 58% 30.18 in 10.0 mi SE 11.5 mph - N/A   Clear
8:55 AM 53.6 °F - 35.6 °F 51% 30.18 in 10.0 mi SE 11.5 mph 19.6 mph N/A   Clear
9:15 AM 53.6 °F - 35.6 °F 51% 30.19 in 10.0 mi SE 12.7 mph 18.4 mph N/A   Clear
9:35 AM 55.4 °F - 37.4 °F 51% 30.19 in 10.0 mi SE 12.7 mph - N/A   Clear
9:55 AM 57.2 °F - 39.2 °F 51% 30.18 in 10.0 mi SE 11.5 mph 18.4 mph N/A   Clear
10:15 AM 60.8 °F - 39.2 °F 45% 30.18 in 10.0 mi SSE 12.7 mph 20.7 mph N/A   Clear
10:35 AM 62.6 °F - 41.0 °F 45% 30.16 in 10.0 mi SE 18.4 mph - N/A   Clear
10:55 AM 64.4 °F - 41.0 °F 42% 30.15 in 10.0 mi SSE 15.0 mph 27.6 mph N/A   Clear
11:15 AM 66.2 °F - 42.8 °F 43% 30.15 in 10.0 mi South 12.7 mph 19.6 mph N/A   Clear
11:35 AM 68.0 °F - 42.8 °F 40% 30.15 in 10.0 mi SSE 12.7 mph - N/A   Clear
11:55 AM 68.0 °F - 42.8 °F 40% 30.13 in 10.0 mi South 15.0 mph 23.0 mph N/A   Clear
12:15 PM 68.0 °F - 44.6 °F 43% 30.12 in 10.0 mi SSE 12.7 mph 20.7 mph N/A   Clear
12:35 PM 69.8 °F - 44.6 °F 40% 30.11 in 10.0 mi South 15.0 mph 21.9 mph N/A   Clear
12:55 PM 71.6 °F - 42.8 °F 35% 30.11 in 9.0 mi South 17.3 mph - N/A   Clear
1:15 PM 73.4 °F - 44.6 °F 36% 30.09 in 9.0 mi South 18.4 mph - N/A   Clear
1:35 PM 73.4 °F - 44.6 °F 36% 30.08 in 9.0 mi South 16.1 mph 23.0 mph N/A   Clear
1:55 PM 73.4 °F - 42.8 °F 33% 30.08 in 8.0 mi South 11.5 mph 29.9 mph N/A   Clear
2:15 PM 75.2 °F - 42.8 °F 31% 30.08 in 8.0 mi South 18.4 mph 25.3 mph N/A   Clear
2:35 PM 75.2 °F - 42.8 °F 31% 30.07 in 9.0 mi SSW 20.7 mph - N/A   Clear
2:55 PM 75.2 °F - 42.8 °F 31% 30.07 in 9.0 mi South 21.9 mph 29.9 mph N/A   Clear
3:15 PM 75.2 °F - 44.6 °F 34% 30.06 in 8.0 mi SSW 18.4 mph 26.5 mph N/A   Clear
3:35 PM 75.2 °F - 44.6 °F 34% 30.04 in 10.0 mi South 19.6 mph 29.9 mph N/A   Clear
3:55 PM 77.0 °F - 42.8 °F 29% 30.04 in 8.0 mi South 16.1 mph 27.6 mph N/A   Clear
4:15 PM 77.0 °F - 41.0 °F 28% 30.04 in 8.0 mi SSW 19.6 mph 29.9 mph N/A   Clear
4:35 PM 75.2 °F - 42.8 °F 31% 30.03 in 9.0 mi South 17.3 mph 28.8 mph N/A   Clear
4:55 PM 77.0 °F - 42.8 °F 29% 30.03 in 9.0 mi South 16.1 mph 23.0 mph N/A   Clear
5:15 PM 75.2 °F - 41.0 °F 29% 30.03 in 9.0 mi SSW 17.3 mph 27.6 mph N/A   Clear
5:35 PM 75.2 °F - 42.8 °F 31% 30.03 in 9.0 mi South 16.1 mph 21.9 mph N/A   Clear
5:55 PM 77.0 °F - 42.8 °F 29% 30.03 in 8.0 mi South 13.8 mph 23.0 mph N/A   Clear
6:15 PM 73.4 °F - 42.8 °F 33% 30.03 in 10.0 mi South 15.0 mph 20.7 mph N/A   Partly Cloudy
6:35 PM 73.4 °F - 44.6 °F 36% 30.04 in 9.0 mi South 11.5 mph - N/A   Mostly Cloudy
6:55 PM 73.4 °F - 42.8 °F 33% 30.04 in 9.0 mi South 12.7 mph - N/A   Mostly Cloudy
7:15 PM 73.4 °F - 42.8 °F 33% 30.04 in 10.0 mi South 13.8 mph 19.6 mph N/A   Overcast
7:35 PM 73.4 °F - 42.8 °F 33% 30.04 in 10.0 mi South 11.5 mph 17.3 mph N/A   Mostly Cloudy
7:55 PM 69.8 °F - 42.8 °F 38% 30.04 in 10.0 mi South 9.2 mph - N/A   Partly Cloudy
8:15 PM 68.0 °F - 44.6 °F 43% 30.04 in 10.0 mi South 9.2 mph - N/A   Clear
8:35 PM 68.0 °F - 44.6 °F 43% 30.05 in 10.0 mi South 8.1 mph - N/A   Partly Cloudy
8:55 PM 68.0 °F - 44.6 °F 43% 30.06 in 10.0 mi South 8.1 mph - N/A   Mostly Cloudy
9:15 PM 66.2 °F - 44.6 °F 46% 30.06 in 10.0 mi South 8.1 mph - N/A   Overcast
9:35 PM 66.2 °F - 44.6 °F 46% 30.07 in 10.0 mi South 6.9 mph - N/A   Mostly Cloudy
9:55 PM 64.4 °F - 44.6 °F 49% 30.07 in 10.0 mi South 6.9 mph - N/A   Overcast
10:15 PM 64.4 °F - 44.6 °F 49% 30.07 in 10.0 mi SSE 8.1 mph - N/A   Mostly Cloudy
10:35 PM 64.4 °F - 44.6 °F 49% 30.07 in 10.0 mi South 8.1 mph - N/A   Mostly Cloudy
10:55 PM 64.4 °F - 44.6 °F 49% 30.07 in 10.0 mi South 8.1 mph - N/A   Overcast
11:15 PM 64.4 °F - 44.6 °F 49% 30.07 in 10.0 mi South 8.1 mph - N/A   Overcast
11:35 PM 64.4 °F - 46.4 °F 52% 30.06 in 10.0 mi SSE 10.4 mph - N/A   Overcast
11:55 PM 64.4 °F - 46.4 °F 52% 30.07 in 10.0 mi South 6.9 mph - N/A   Overcast